This demonstration page uses our WeatherBlox Daily Observations layout. Learn more.

Left ArrowRight Arrow

34.74481, -87.66753

Hourly Observations for June 19, 2018

Temp ( °F °C ) Dew Point ( °F °C ) Humidity (%) Winds ( mph kmh ) Pressure ( in mb ) Visibility ( mi km ) Precip ( " mm )
12:53 am 00:53 Clear 73 22.8 70 21.1 90 90 Calm 30.09 1019 10 16 0.00 0.00
1:53 am 01:53 Clear 73 22.8 70 21.1 90 90 Calm 30.08 1019 10 16 0.00 0.00
2:53 am 02:53 Clear 72 22.2 70 21.1 94 94 Calm 30.06 1018 10 16 0.00 0.00
3:53 am 03:53 Clear 72 22.2 69 20.6 91 91 Calm 30.07 1018 10 16 0.00 0.00
4:53 am 04:53 Clear 71 21.7 69 20.6 94 94 SSE 3 6 30.07 1018 10 16 0.00 0.00
5:53 am 05:53 Sunny 71 21.7 69 20.6 94 94 Calm 30.09 1019 10 16 0.00 0.00
6:53 am 06:53 Sunny 74 23.3 71 21.7 91 91 SW 5 7 30.10 1019 10 16 0.00 0.00
7:53 am 07:53 Sunny 79 26.1 72 22.2 79 79 WNW 5 7 30.10 1019 10 16 0.00 0.00
8:53 am 08:53 Sunny 83 28.3 72 22.2 70 70 NW 5 7 30.10 1019 10 16 0.00 0.00
9:53 am 09:53 Sunny 84 28.9 72 22.2 67 67 NW 3 6 30.10 1019 10 16 0.00 0.00
10:53 am 10:53 Sunny 86 30 72 22.2 63 63 WNW 8 13 30.09 1019 10 16 0.00 0.00
11:53 am 11:53 Mostly Sunny 88 31.1 72 22.2 59 59 NW 8 13 30.08 1019 10 16 0.00 0.00
12:53 pm 12:53 Sunny 89 31.7 67 19.4 48 48 NW 8 13 30.07 1018 10 16 0.00 0.00
1:53 pm 13:53 Sunny 88 31.1 68 20 52 52 NW 8 13 30.05 1018 10 16 0.00 0.00
2:53 pm 14:53 Sunny 89 31.7 67 19.4 48 48 NW 9 15 30.03 1017 10 16 0.00 0.00
3:53 pm 15:53 Sunny 89 31.7 68 20 50 50 NNW 7 11 30.00 1016 10 16 0.00 0.00
4:53 pm 16:53 Sunny 88 31.1 69 20.6 54 54 NW 6 9 29.99 1016 10 16 0.00 0.00
5:53 pm 17:53 Sunny 87 30.6 66 18.9 50 50 NW 9 15 29.98 1015 10 16 0.00 0.00
6:53 pm 18:53 Sunny 84 28.9 67 19.4 57 57 NW 6 9 29.98 1015 10 16 0.00 0.00
7:53 pm 19:53 Sunny 83 28.3 68 20 61 61 Calm 29.99 1016 10 16 0.00 0.00
8:53 pm 20:53 Clear 81 27.2 70 21.1 69 69 Calm 29.99 1016 10 16 0.00 0.00
9:53 pm 21:53 Clear 78 25.6 70 21.1 76 76 Calm 30.00 1016 10 16 0.00 0.00
10:53 pm 22:53 Clear 76 24.4 70 21.1 82 82 Calm 30.00 1016 10 16 0.00 0.00
11:53 pm 23:53 Clear 75 23.9 72 22.2 90 90 Calm 29.99 1016 10 16 0.00 0.00

Powered by AerisWeather